Raleigh-Durham Airport, NC

12:12 AM EDT on August 18, 2017 (GMT -0400)
Raleigh-Durham International

Weather History for KRDU - March, 2015

Change the Weather History Date:

Saturday, March 7, 2015

  Actual Average Record
Temperature  
Mean Temperature 39 °F 49 °F  
Max Temperature 58 °F 61 °F 85 °F (1974)
Min Temperature 20 °F 38 °F 15 °F (1960)
Degree Days  
Heating Degree Days 26 16  
Month to date heating degree days 160 118  
Since 1 July heating degree days 3057 2690  
Cooling Degree Days 0 0  
Month to date cooling degree days 0 0  
Year to date cooling degree days 0 1  
Moisture  
Dew Point 20 °F    
Average Humidity 54    
Maximum Humidity 84    
Minimum Humidity 24    
Precipitation  
Precipitation 0.00 in 0.14 in 1.72 in (2014)
Month to date precipitation 1.73 0.92  
Year to date precipitation 7.99 7.65  
Snow  
Snow 0.00 in 0.00 in 1.50 in (1907)
Month to date snowfall 0.0 0.2  
Since 1 July snowfall 7.9 5.7  
Snow Depth 0.00 in    
Sea Level Pressure  
Sea Level Pressure 30.36 in    
Wind  
Wind Speed 6 mph (SW)    
Max Wind Speed 16 mph    
Max Gust Speed 22 mph    
Visibility 10 miles    
Events      
T = Trace of Precipitation, MM = Missing Value Source: NWS Daily Summary

Daily Weather History Graph

Daily Weather History Graph

Search for Another Location

Airport or City:

Trip Planner

Search our weather history database for the weather conditions in past years. The results will help you decide how hot, cold, wet, or windy it might be!

Date:

Astronomy

Mar. 07, 2015 Rise Set
Actual Time 6:37 AM EST 6:15 PM EST
Civil Twilight 6:11 AM EST 6:41 PM EST
Nautical Twilight 5:42 AM EST 7:10 PM EST
Astronomical Twilight 5:12 AM EST 7:40 PM EST
Moon 8:11 PM EST (3/7) 7:27 AM EST (3/7)
Length of Visible Light 12h 29m
Length of Day
11h 37m
Waning Gibbous, 97% of the Moon is Illuminated
Mar 7
Waning Gibbous
Mar 13
Last Quarter
Mar 20
New
Mar 27
First Quarter
Apr 4
Full

Hourly Weather History & Observations

Time (EST) Temp. Windchill Dew Point Humidity Pressure Visibility Wind Dir Wind Speed Gust Speed Precip Events Conditions
12:51 AM 24.1 °F - 15.1 °F 69% 30.43 in 10.0 mi Calm Calm - N/A   Clear
1:51 AM 24.1 °F - 16.0 °F 71% 30.42 in 10.0 mi Calm Calm - N/A   Clear
2:51 AM 23.0 °F - 15.1 °F 72% 30.40 in 10.0 mi Calm Calm - N/A   Clear
3:51 AM 23.0 °F - 16.0 °F 74% 30.40 in 10.0 mi Calm Calm - N/A   Clear
4:51 AM 21.0 °F - 15.1 °F 78% 30.41 in 9.0 mi Calm Calm - N/A   Clear
5:51 AM 21.9 °F - 17.1 °F 82% 30.42 in 9.0 mi Calm Calm - N/A   Clear
6:51 AM 21.0 °F 16.2 °F 17.1 °F 85% 30.44 in 10.0 mi West 3.5 mph - N/A   Clear
7:51 AM 27.0 °F 20.5 °F 19.0 °F 72% 30.46 in 10.0 mi West 5.8 mph - N/A   Clear
8:51 AM 32.0 °F 24.8 °F 19.9 °F 61% 30.46 in 10.0 mi SW 8.1 mph - N/A   Partly Cloudy
9:51 AM 37.9 °F 32.7 °F 19.0 °F 47% 30.45 in 10.0 mi West 6.9 mph - N/A   Partly Cloudy
10:51 AM 42.1 °F 37.1 °F 19.0 °F 40% 30.44 in 10.0 mi West 8.1 mph - N/A   Clear
11:51 AM 48.0 °F - 21.0 °F 34% 30.42 in 10.0 mi SW 11.5 mph - N/A   Clear
12:51 PM 51.1 °F - 19.9 °F 29% 30.38 in 10.0 mi SW 13.8 mph 18.4 mph N/A   Clear
1:51 PM 53.1 °F - 21.0 °F 29% 30.32 in 10.0 mi SW 11.5 mph 18.4 mph N/A   Clear
2:51 PM 55.0 °F - 21.0 °F 27% 30.30 in 10.0 mi WSW 12.7 mph - N/A   Clear
3:51 PM 57.0 °F - 23.0 °F 27% 30.29 in 10.0 mi WSW 8.1 mph 18.4 mph N/A   Clear
4:51 PM 57.0 °F - 21.9 °F 26% 30.27 in 10.0 mi SW 12.7 mph - N/A   Clear
5:51 PM 52.0 °F - 24.1 °F 34% 30.27 in 10.0 mi WSW 8.1 mph - N/A   Clear
6:51 PM 48.9 °F - 23.0 °F 36% 30.28 in 10.0 mi SW 4.6 mph - N/A   Clear
7:51 PM 46.0 °F 44.8 °F 24.1 °F 42% 30.28 in 10.0 mi SW 3.5 mph - N/A   Clear
8:51 PM 46.0 °F 44.8 °F 25.0 °F 44% 30.27 in 10.0 mi South 3.5 mph - N/A   Clear
9:51 PM 44.1 °F 40.8 °F 26.1 °F 49% 30.27 in 10.0 mi SSW 5.8 mph - N/A   Clear
10:51 PM 44.1 °F 39.0 °F 27.0 °F 51% 30.27 in 10.0 mi SW 9.2 mph - N/A   Clear
11:51 PM 43.0 °F 37.2 °F 28.0 °F 56% 30.25 in 10.0 mi SW 10.4 mph - N/A   Clear